Location: Augirein
(42.9320°N, 0.9181°E)
Time: 02:49:39
(UTC+00:00)

Cosmos 1606 - Pass Details

Date: 20 June 2021
Orbit: 501 x 527 km, 82.5° (Epoch: 04 August)

Event Time Altitude Azimuth Distance (km) Brightness Sun altitude
Rises 00:57:51 0° 0° (N) 2,651 7.7 -22.2°
Reaches altitude 10° 01:00:10 10° 10° (N) 1,753 6.5 -22.1°
Maximum altitude 01:03:40 33° 76° (ENE) 879 4.1 -21.9°
Enters shadow 01:04:42 28° 109° (ESE) 983 4.0 -21.9°
